Airport ICAO


11:05 UTC

25°C

Clear skies


An affordable passengers' Moving Map for your aircraft. Made for the iPad and the iPhone
More information here

LFPM Villaroche


Melun FRANCE   VFR CAVOK


METAR LFPM 191100Z AUTO 24007KT 170V290 CAVOK 25/12 Q1023 0h05min





NOTAMS

OPEN